This is the latest recevied weather packets stored in our database for station/object SV7RNH. If no packets are shown the sender has not sent any weather packets the latest 10 day(s).
| Time | Temp. | Humidity | Pressure | Rain* | Wind** | Luminosity | Snow |
|---|---|---|---|---|---|---|---|
| 1777707604 | 15.56° C | 36% | 1023.7 hPa | 0 mm | - | - | - |
| 1777707303 | 15.56° C | 40% | 1023.7 hPa | 0 mm | - | - | - |
| 1777707004 | 15.56° C | 42% | 1023.8 hPa | 0 mm | - | - | - |
| 1777706703 | 15.56° C | 44% | 1023.7 hPa | 0 mm | - | - | - |
| 1777706403 | 15° C | 44% | 1023.8 hPa | 0 mm | - | - | - |
| 1777706103 | 15° C | 45% | 1023.9 hPa | 0 mm | - | - | - |
| 1777705804 | 15° C | 47% | 1023.8 hPa | 0 mm | - | - | - |
| 1777705504 | 15° C | 50% | 1023.8 hPa | 0 mm | - | - | - |
| 1777705203 | 14.44° C | 50% | 1023.8 hPa | 0 mm | - | - | - |
| 1777704903 | 14.44° C | 50% | 1023.9 hPa | 0 mm | - | - | - |
| 1777704603 | 14.44° C | 51% | 1024.1 hPa | 0 mm | - | - | - |
| 1777704303 | 13.89° C | 52% | 1024.1 hPa | 0 mm | - | - | - |
| 1777704004 | 13.89° C | 52% | 1024 hPa | 0 mm | - | - | - |
| 1777703704 | 14.44° C | 54% | 1024.1 hPa | 0 mm | - | - | - |
| 1777703403 | 13.89° C | 55% | 1024.1 hPa | 0 mm | - | - | - |
| 1777703103 | 13.89° C | 55% | 1024 hPa | 0 mm | - | - | - |
| 1777702804 | 13.89° C | 56% | 1024.1 hPa | 0 mm | - | - | - |
| 1777702503 | 13.33° C | 56% | 1024.1 hPa | 0 mm | - | - | - |
| 1777702203 | 13.89° C | 56% | 1024 hPa | 0 mm | - | - | - |
| 1777701903 | 13.33° C | 57% | 1024.1 hPa | 0 mm | - | - | - |
| 1777701604 | 13.33° C | 58% | 1024.1 hPa | 0 mm | - | - | - |
| 1777701304 | 13.33° C | 60% | 1024.1 hPa | 0 mm | - | - | - |
| 1777701003 | 12.78° C | 60% | 1024.1 hPa | 0 mm | - | - | - |
| 1777700703 | 12.78° C | 61% | 1024.1 hPa | 0 mm | - | - | - |
| 1777700404 | 12.78° C | 61% | 1024 hPa | 0 mm | - | - | - |
* Rain latest hour (hover to see other rain measurements)
** Current wind speed in m/s (hover to see current wind gust speed)